* Astronomy

Members Login
Username 
 
Password 
    Remember Me  
Post Info TOPIC: TNO 2012 DS85


L

Posts: 131433
Date:
TNO 2012 DS85
Permalink  
 


Orbital elements:
2012 DS85
Epoch 2012 Feb. 23.0 TT = JDT 2455980.5                 MPC
M 346.55721              (2000.0)            P               Q
n   0.01022778     Peri.   20.91963     -0.85522226     -0.47577591
a  21.0191536      Node   128.97404     +0.42999996     -0.87275348
e   0.2027656      Incl.   15.32763     +0.28930072     -0.10926412
P  96.4            H    9.8           G   0.15
From 27 observations 2012 Feb. 19-27

MPEC 2012 - E44



__________________
Page 1 of 1  sorted by
Quick Reply

Please log in to post quick replies.



Create your own FREE Forum
Report Abuse
Powered by ActiveBoard